STARLINK-4202, 52848

Orbit data source: Space-Track

STARLINK-4202, 52848 is a payload satellite owned by SpaceX/Seattle (US) in LEO that was launched on Fri, 17 Jun 2022 UTC via an FALCON 9 launch vehicle from the Air Force Eastern Test Range (AFETR). Payload-class satellites include a variety of spacecraft equipped with specific instruments for various scientific and technological missions. These include communications satellites like Starlink; space stations such as the ISS; scientific satellites like the Hubble; Earth observation satellites from companies like Planet Labs, Umbra, and HawkEye 360; GPS; miniature CubeSats for education and research; and military/defense satellites.

Loading next visibility...
Identifier
52848, 2022-062U
Orbit
LEO
Country
Flag of USUS
Related business
Manufacturer
SpaceX/Seattle
Mission
Operational Commercial Communications
Bus & Motor
STARLINK, Unknown motor
Mass
297 kg wet, ~275 kg dry
Launch date (UTC)
2022-06-17 (3 years ago)
Launch vehicle
FALCON 9
Launch site
Air Force Eastern Test Range (AFETR)
Object type
Payload
Rocket body
Debris
Shape & HBR
Box + 1 Pan, 10.1 m
Radar Cross Section
13.562 m², Large (>1 m²)

Expand to show TLE details & history
Last TLE update: 18 hours ago

TLE from 18 hours ago
0 STARLINK-4202
1 52848U 22062U   25349.34186240  .00000569  00000-0  53849-4 0  9993
2 52848  53.2176  52.7732 0001493  97.2610 262.8552 15.08845656193057
Epoch: 2025-12-15T08:12Z
TLE epoch observation values (Epoch: 2025-12-15T08:12:16.911Z)
Latitude
-0.00001°
Longitude
-154.53908°
Altitude
540.752 km
Speed
7.593 km/s
True Right ascension
03h 31m 05s
True Declination
0° 00' 00"
Sunlit
Object was in full shadow at epoch
Visualization orbit readout
Latitude
Unknown
Longitude
Unknown
Altitude
Unknown
Speed
Unknown
Apparent Right ascension
Unknown
Apparent Declination
Unknown
Sunlit
N/A
Visualization observer readout
Local Sidereal Time
00:25:01
Azimuth
Unknown
Elevation
Unknown
Doppler factor
Unknown
Orbital elements
Apogee altitude
541.004 km
Perigee altitude
538.938 km
Semi-major axis
6,918.108 km
Eccentricity
0.00015
Inclination
53.2176°
RAAN
52.7732°
Arg. of periapsis
97.261°
True anomaly
262.83822°
Mean anomaly
262.8552°
Eccentric anomaly
262.84671°
Mean motion
3.77192 °/min
Orbital period
95.44 mins
BSTAR
0.000053849
Loading maneuver chart data...
Computing Atmospheric mass density...
Loading historical data...
Loading historical data...
Loading historical data...
Loading historical data...
Loading historical data...
Loading historical data...
Loading historical data...

Documentation

Showing up to 5 results
|